Hondo, TX

9:37 PM CST on December 14, 2019 (GMT -0600)
Hondo Municipal

Weather History for KHDO - October, 2019

Change the Weather History Date:

Thursday, October 17, 2019

  Actual Average Record
Temperature  
Mean Temperature 66 °F -  
Max Temperature 77 °F 80 °F 95 °F (2016)
Min Temperature 55 °F 56 °F 44 °F (2017)
Cooling Degree Days 1    
Growing Degree Days 16 (Base 50)    
Moisture  
Dew Point 44 °F    
Average Humidity 48    
Maximum Humidity 77    
Minimum Humidity 27    
Precipitation  
Precipitation 0.00 in - - ()
Sea Level Pressure  
Sea Level Pressure 29.97 in    
Wind  
Wind Speed 6 mph (ENE)    
Max Wind Speed 9 mph    
Max Gust Speed -    
Visibility 10 miles    
Events      
Averages and records for this station are not official NWS values.
T = Trace of Precipitation, MM = Missing Value Source: NWS Daily Summary

Daily Weather History Graph

Daily Weather History Graph

Search for Another Location

Airport or City:

Astronomy

Oct. 17, 2019 Rise Set
Actual Time 7:39 AM CDT 7:04 PM CDT
Civil Twilight 7:15 AM CDT 7:28 PM CDT
Nautical Twilight 6:47 AM CDT 7:56 PM CDT
Astronomical Twilight 6:19 AM CDT 8:23 PM CDT
Moon 9:51 PM CDT (10/17) 10:59 AM CDT (10/17)
Length of Visible Light 12h 13m
Length of Day
11h 25m
Waning Gibbous, 86% of the Moon is Illuminated
Oct 17
Waning Gibbous
Oct 21
Last Quarter
Oct 27
New
Nov 4
First Quarter
Nov 12
Full

Hourly Weather History & Observations

Time (CDT) Temp. Dew Point Humidity Pressure Visibility Wind Dir Wind Speed Gust Speed Precip Events Conditions
12:51 AM 64.0 °F 43.0 °F 46% 30.08 in 10.0 mi East 6.9 mph - N/A   Overcast
1:51 AM 63.0 °F 43.0 °F 48% 30.07 in 10.0 mi ENE 8.1 mph - N/A   Mostly Cloudy
3:51 AM 61.0 °F 46.0 °F 58% 30.03 in 10.0 mi Calm Calm - N/A   Overcast
4:51 AM 60.1 °F 48.0 °F 64% 30.02 in 10.0 mi North 4.6 mph - N/A   Overcast
5:51 AM 59.0 °F 46.9 °F 64% 30.02 in 10.0 mi ENE 4.6 mph - N/A   Mostly Cloudy
6:51 AM 57.9 °F 46.9 °F 67% 30.03 in 10.0 mi NW 5.8 mph - N/A   Scattered Clouds
7:51 AM 57.0 °F 50.0 °F 77% 30.03 in 10.0 mi NNW 4.6 mph - N/A   Scattered Clouds
8:51 AM 59.0 °F 46.9 °F 64% 30.05 in 10.0 mi NNW 4.6 mph - N/A   Overcast
9:51 AM 66.9 °F 42.1 °F 40% 30.04 in 10.0 mi NE 8.1 mph - N/A   Partly Cloudy
10:51 AM 66.9 °F 42.1 °F 40% 30.04 in 10.0 mi East 9.2 mph - N/A   Clear
11:51 AM 69.1 °F 43.0 °F 39% 30.02 in 10.0 mi East 8.1 mph - N/A   Clear
12:51 PM 72.0 °F 39.9 °F 31% 30.00 in 10.0 mi ESE 5.8 mph - N/A   Clear
1:51 PM 73.0 °F 39.0 °F 29% 29.96 in 10.0 mi SE 5.8 mph - N/A   Clear
2:51 PM 75.0 °F 39.0 °F 27% 29.93 in 10.0 mi Variable 4.6 mph - N/A   Clear
3:51 PM 75.0 °F 42.1 °F 31% 29.91 in 10.0 mi Calm Calm - N/A   Clear
4:51 PM 75.9 °F 39.9 °F 27% 29.89 in 10.0 mi ESE 4.6 mph - N/A   Overcast
5:51 PM 73.9 °F 42.1 °F 32% 29.88 in 10.0 mi ESE 9.2 mph - N/A   Overcast
6:51 PM 72.0 °F 43.0 °F 35% 29.89 in 10.0 mi SE 6.9 mph - N/A   Mostly Cloudy
7:51 PM 69.1 °F 45.0 °F 42% 29.89 in 10.0 mi SSE 8.1 mph - N/A   Mostly Cloudy
8:51 PM 66.0 °F 43.0 °F 43% 29.90 in 10.0 mi ESE 4.6 mph - N/A   Partly Cloudy
9:51 PM 61.0 °F 45.0 °F 56% 29.90 in 10.0 mi ENE 6.9 mph - N/A   Clear
10:51 PM 60.1 °F 46.0 °F 60% 29.91 in 10.0 mi Calm Calm - N/A   Clear
11:51 PM 55.9 °F 48.9 °F 77% 29.90 in 10.0 mi North 5.8 mph - N/A   Clear